Location: Bismarck
(46.7731°N, 100.8200°W)
Time: 05:49:15
(UTC-06:00)

ISS - All Passes

Search period start: 11 December 2016 00:00
Search period end: 21 December 2016 00:00
Orbit: 401 x 409 km, 51.6° (Epoch: 11 December)

Date Brightness Start Highest point End Pass type
(mag) Time Alt. Az. Time Alt. Az. Time Alt. Az.
11 Dec - 14:35:20 10° SSW 14:38:01 23° SE 14:40:43 10° E daylight
11 Dec - 16:11:00 10° WSW 16:14:17 68° NNW 16:17:35 10° ENE daylight
11 Dec - 17:48:05 10° WNW 17:51:08 33° N 17:54:12 10° ENE visible
11 Dec - 19:24:50 10° WNW 19:28:05 50° NNE 19:31:19 10° E visible
11 Dec - 21:01:26 10° WNW 21:04:33 38° SW 21:07:38 10° SSE night (unlit)
12 Dec - 13:44:29 10° SSE 13:46:16 14° SE 13:48:03 10° ESE daylight
12 Dec - 15:19:01 10° WSW 15:22:18 80° SSE 15:25:37 10° ENE daylight
12 Dec - 16:55:55 10° WNW 16:59:02 36° N 17:02:07 10° ENE daylight
12 Dec - 18:32:51 10° WNW 18:36:00 39° NNE 18:39:08 10° E visible
12 Dec - 20:09:22 10° WNW 20:12:39 64° SSW 20:15:55 10° SE visible
12 Dec - 21:47:43 10° WSW 21:48:35 11° SW 21:49:27 10° SSW night (unlit)
13 Dec - 14:27:12 10° SW 14:30:22 48° SSE 14:33:33 10° ENE daylight
13 Dec - 16:03:45 10° W 16:06:55 44° NNW 16:10:06 10° ENE daylight
13 Dec - 17:40:48 10° WNW 17:43:53 34° N 17:46:57 10° ENE visible
13 Dec - 19:17:21 10° WNW 19:20:40 82° NNE 19:23:58 10° ESE visible
13 Dec - 20:54:27 10° W 20:56:50 19° SW 20:59:13 10° S visible
14 Dec - 13:35:37 10° SSW 13:38:29 28° SE 13:41:23 10° E daylight
14 Dec - 15:11:35 10° WSW 15:14:50 59° NNW 15:18:07 10° ENE daylight
14 Dec - 16:48:41 10° WNW 16:51:44 33° N 16:54:46 10° ENE daylight
14 Dec - 18:25:22 10° WNW 18:28:38 56° NNE 18:31:53 10° E visible
14 Dec - 20:02:02 10° WNW 20:05:01 31° SW 20:07:58 10° SSE visible
15 Dec - 12:44:27 10° S 12:46:40 17° SE 12:48:53 10° E daylight
15 Dec - 14:19:30 10° WSW 14:22:47 87° NNW 14:26:06 10° ENE daylight
15 Dec - 15:56:30 10° WNW 15:59:34 35° N 16:02:39 10° ENE daylight
15 Dec - 17:33:21 10° WNW 17:36:31 42° NNE 17:39:43 10° E visible
15 Dec - 19:09:52 10° WNW 19:13:06 52° SSW 19:16:20 10° SE visible
16 Dec - 13:27:34 10° SW 13:30:47 59° SSE 13:34:02 10° ENE daylight
16 Dec - 15:04:17 10° W 15:07:25 40° NNW 15:10:34 10° ENE daylight
16 Dec - 16:41:18 10° WNW 16:44:23 36° N 16:47:28 10° ENE daylight
16 Dec - 18:17:49 10° WNW 18:21:07 85° SSW 18:24:25 10° ESE visible
16 Dec - 19:55:11 10° W 19:57:12 15° SW 19:59:12 10° S visible
17 Dec - 12:35:51 10° SSW 12:38:52 34° SE 12:41:53 10° ENE daylight
17 Dec - 14:12:03 10° W 14:15:17 52° NNW 14:18:31 10° ENE daylight
17 Dec - 15:49:09 10° WNW 15:52:12 33° N 15:55:15 10° ENE daylight
17 Dec - 17:25:46 10° WNW 17:29:04 64° NNE 17:32:21 10° ESE visible
17 Dec - 19:02:34 10° W 19:05:22 25° SW 19:08:09 10° SSE visible
18 Dec - 11:44:27 10° S 11:46:58 21° SE 11:49:30 10° E daylight
18 Dec - 13:19:54 10° WSW 13:23:11 74° NNW 13:26:29 10° ENE daylight
18 Dec - 14:56:57 10° WNW 15:00:00 34° N 15:03:03 10° ENE daylight
18 Dec - 16:33:44 10° WNW 16:36:56 46° NNE 16:40:09 10° E daylight
18 Dec - 18:10:18 10° WNW 18:13:27 42° SW 18:16:35 10° SE visible
19 Dec - 10:53:47 10° SSE 10:55:09 12° SE 10:56:31 10° ESE daylight
19 Dec - 12:27:52 10° SW 12:31:07 71° SSE 12:34:24 10° ENE daylight
19 Dec - 14:04:42 10° W 14:07:48 38° N 14:10:55 10° ENE daylight
19 Dec - 15:41:39 10° WNW 15:44:46 38° N 15:47:53 10° E daylight
19 Dec - 17:18:09 10° WNW 17:21:27 72° SSW 17:24:44 10° SE daylight
19 Dec - 18:56:00 10° WSW 18:57:26 12° SW 18:58:52 10° SSW visible
20 Dec - 11:36:01 10° SW 11:39:07 42° SE 11:42:15 10° ENE daylight
20 Dec - 13:12:26 10° W 13:15:37 46° NNW 13:18:49 10° ENE daylight
20 Dec - 14:49:31 10° WNW 14:52:33 34° N 14:55:36 10° ENE daylight
20 Dec - 16:26:04 10° WNW 16:29:22 74° NNE 16:32:40 10° ESE daylight
20 Dec - 18:03:02 10° W 18:05:35 21° SW 18:08:08 10° S visible
